Find Local Weather

World > North America > United States > New York

New York, New York Regional Weather

Lat: 40.71N, Lon: 74.01W
Wx Zone: NYZ072
Feedback
Expires:201806210500;;862792
ASUS41 KPHI 210413
RWRPHI

REGIONAL WEATHER ROUNDUP
NATIONAL WEATHER SERVICE MOUNT HOLLY NJ
1200 AM EDT THU JUN 21 2018

NOTE:  "FAIR" INDICATES FEW OR NO CLOUDS BELOW 12,000 FEET WITH NO
SIGNIFICANT WEATHER AND/OR OBSTRUCTIONS TO VISIBILITY.

 * = STATION DOES NOT REPORT PRECIPITATION (E.G. RAIN, SNOW, ETC.) 
        OR FOG.


PAZ001-021-NYZ056-072-MDZ011-DCZ001-210500-
OTHER NEARBY LOCATIONS
  
CITY           SKY/WX    TMP DP  RH WIND       PRES   REMARKS
HARRISBURG     CLOUDY    72  67  84 NW3       29.78S                  
STATE COLLEGE  CLOUDY    66  65  94 CALM      29.83S                  
WILLIAMSPORT   CLOUDY    68  60  75 CALM      29.80S                  
BINGHAMTON     FAIR      63  54  72 NW5       29.84F                  
NEW YORK CITY  CLOUDY    74  67  78 CALM      29.80S                  
BALTIMORE      MOCLDY    71  70  96 W6        29.77F                  
WASHINGTON DC  CLOUDY    74  69  85 CALM      29.78F                  

$$
  

SKY/WX - Weather  TMP - Temperature  DP - Dewpoint  RH - Relative Humidity
WIND - Wind Direction/Speed PRES - Barometric Pressure